This is the latest recevied weather packets stored in our database for station/object DM4XI-13. If no packets are shown the sender has not sent any weather packets the latest 10 day(s).
| Time | Temp. | Humidity | Pressure | Rain* | Wind** | Luminosity | Snow |
|---|---|---|---|---|---|---|---|
| 1777944882 | 16.11° C | 60% | 1007.6 hPa | 0 mm | 1.79 m/s, 263° | 0 W/m² | - |
| 1777944821 | 16.11° C | 60% | 1007.7 hPa | 0 mm | 1.34 m/s, 311° | 0 W/m² | - |
| 1777944761 | 16.11° C | 60% | 1007.5 hPa | 0 mm | 1.79 m/s, 290° | 0 W/m² | - |
| 1777944699 | 16.11° C | 60% | 1007.5 hPa | 0 mm | 2.68 m/s, 312° | 0 W/m² | - |
| 1777944638 | 16.11° C | 60% | 1007.5 hPa | 0 mm | 1.34 m/s, 323° | 0 W/m² | - |
| 1777944577 | 16.11° C | 60% | 1007.7 hPa | 0 mm | 1.79 m/s, 331° | 0 W/m² | - |
| 1777944521 | 16.11° C | 60% | 1007.5 hPa | 0 mm | 1.34 m/s, 295° | 0 W/m² | - |
| 1777944455 | 16.11° C | 60% | 1007.6 hPa | 0 mm | 0.89 m/s, 6° | 0 W/m² | - |
| 1777944394 | 16.11° C | 60% | 1007.4 hPa | 0 mm | 1.79 m/s, 296° | 0 W/m² | - |
| 1777944333 | 16.11° C | 60% | 1007.7 hPa | 0 mm | 0.89 m/s, 265° | 0 W/m² | - |
| 1777944272 | 16.11° C | 60% | 1007.6 hPa | 0 mm | 0.45 m/s, 242° | 0 W/m² | - |
| 1777944211 | 16.11° C | 60% | 1007.8 hPa | 0 mm | 0.89 m/s, 247° | 0 W/m² | - |
| 1777944150 | 16.11° C | 60% | 1007.8 hPa | 0 mm | 0.89 m/s, 292° | 0 W/m² | - |
| 1777944089 | 16.11° C | 60% | 1007.5 hPa | 0 mm | 0.45 m/s, 291° | 0 W/m² | - |
| 1777944028 | 16.11° C | 60% | 1007.6 hPa | 0 mm | 1.34 m/s, 286° | 0 W/m² | - |
| 1777943967 | 16.11° C | 60% | 1007.7 hPa | 0 mm | 1.34 m/s, 298° | 0 W/m² | - |
| 1777943906 | 16.11° C | 60% | 1007.6 hPa | 0 mm | 1.79 m/s, 300° | 0 W/m² | - |
| 1777943845 | 16.11° C | 59% | 1007.5 hPa | 0 mm | 1.34 m/s, 309° | 0 W/m² | - |
| 1777943784 | 16.67° C | 59% | 1007.7 hPa | 0 mm | 2.24 m/s, 350° | 0 W/m² | - |
| 1777943723 | 16.67° C | 59% | 1007.6 hPa | 0 mm | 0.89 m/s, 295° | 0 W/m² | - |
| 1777943662 | 16.67° C | 59% | 1007.6 hPa | 0 mm | 1.79 m/s, 312° | 0 W/m² | - |
| 1777943601 | 16.67° C | 59% | 1007.5 hPa | 0 mm | 1.34 m/s, 347° | 0 W/m² | - |
| 1777943540 | 16.67° C | 59% | 1007.6 hPa | 0 mm | 2.24 m/s, 329° | 0 W/m² | - |
| 1777943479 | 16.11° C | 59% | 1007.7 hPa | 0 mm | 1.34 m/s, 13° | 0 W/m² | - |
| 1777943418 | 16.11° C | 59% | 1007.6 hPa | 0 mm | 1.34 m/s, 295° | 0 W/m² | - |
* Rain latest hour (hover to see other rain measurements)
** Current wind speed in m/s (hover to see current wind gust speed)